Wetterdaten: aktuell Sonntag, 19.01.2020 17:45
Datum Zeit Temp. Feuchte Luftdruck Nieders. Wind Richtung Richtung Sonnenschein Solar Taupunkt Windchill Windben
19.01.2020 17:45 3,9 C 87 % 1040,2 hPa 0,0 l/m 0,0 km/h (0 Bft) NW 315 0 min 0 W/m 1,9 C 3,9 C 0,0 km/h (0 Bft)
19.01.2020 17:40 4,0 C 86 % 1040,0 hPa 0,0 l/m 0,0 km/h (0 Bft) NW 315 0 min 0 W/m 1,9 C 4,0 C 0,0 km/h (0 Bft)
19.01.2020 17:35 4,2 C 86 % 1040,0 hPa 0,0 l/m 0,0 km/h (0 Bft) NW 315 0 min 0 W/m 2,1 C 4,2 C 0,0 km/h (0 Bft)
19.01.2020 17:30 4,3 C 86 % 1039,8 hPa 0,0 l/m 0,0 km/h (0 Bft) NW 315 0 min 0 W/m 2,2 C 4,3 C 0,0 km/h (0 Bft)
19.01.2020 17:25 4,4 C 86 % 1039,8 hPa 0,0 l/m 0,0 km/h (0 Bft) NW 315 0 min 0 W/m 2,3 C 4,4 C 0,0 km/h (0 Bft)
19.01.2020 17:20 4,4 C 85 % 1039,8 hPa 0,0 l/m 0,0 km/h (0 Bft) NW 315 0 min 0 W/m 2,1 C 4,4 C 0,0 km/h (0 Bft)
19.01.2020 17:15 4,5 C 85 % 1039,9 hPa 0,0 l/m 0,0 km/h (0 Bft) NW 315 0 min 0 W/m 2,2 C 4,5 C 0,0 km/h (0 Bft)
19.01.2020 17:10 4,6 C 85 % 1039,7 hPa 0,0 l/m 0,0 km/h (0 Bft) NW 315 0 min 0 W/m 2,3 C 4,6 C 0,0 km/h (0 Bft)
19.01.2020 17:05 4,7 C 85 % 1039,5 hPa 0,0 l/m 0,0 km/h (0 Bft) NW 315 0 min 0 W/m 2,4 C 4,7 C 0,0 km/h (0 Bft)
19.01.2020 17:00 4,7 C 85 % 1039,5 hPa 0,0 l/m 0,0 km/h (0 Bft) NW 315 0 min 0 W/m 2,4 C 4,7 C 0,0 km/h (0 Bft)
19.01.2020 16:55 4,8 C 85 % 1039,5 hPa 0,0 l/m 0,0 km/h (0 Bft) NW 315 0 min 0 W/m 2,5 C 4,8 C 0,0 km/h (0 Bft)
19.01.2020 16:50 4,8 C 85 % 1039,3 hPa 0,0 l/m 0,0 km/h (0 Bft) NW 315 0 min 0 W/m 2,5 C 4,8 C 0,0 km/h (0 Bft)
19.01.2020 16:45 4,9 C 85 % 1039,3 hPa 0,0 l/m 0,0 km/h (0 Bft) NW 315 0 min 0 W/m 2,6 C 4,9 C 0,0 km/h (0 Bft)
19.01.2020 16:40 5,0 C 84 % 1039,1 hPa 0,0 l/m 0,0 km/h (0 Bft) NW 315 0 min 5 W/m 2,5 C 5,0 C 0,0 km/h (0 Bft)
19.01.2020 16:35 5,1 C 84 % 1039,0 hPa 0,0 l/m 0,0 km/h (0 Bft) NW 315 0 min 7 W/m 2,6 C 5,1 C 0,0 km/h (0 Bft)
19.01.2020 16:30 5,1 C 84 % 1039,1 hPa 0,0 l/m 0,0 km/h (0 Bft) NW 315 0 min 9 W/m 2,6 C 5,1 C 0,0 km/h (0 Bft)
19.01.2020 16:25 5,2 C 84 % 1038,9 hPa 0,0 l/m 0,0 km/h (0 Bft) NW 315 0 min 14 W/m 2,7 C 5,2 C 0,0 km/h (0 Bft)
19.01.2020 16:20 5,2 C 83 % 1038,8 hPa 0,0 l/m 1,5 km/h (1 Bft) NW 315 0 min 14 W/m 2,6 C 5,2 C 6,4 km/h (2 Bft)
19.01.2020 16:15 5,3 C 84 % 1038,7 hPa 0,0 l/m 2,2 km/h (1 Bft) NW 314 0 min 14 W/m 2,8 C 5,3 C 6,4 km/h (2 Bft)
19.01.2020 16:10 5,4 C 83 % 1038,6 hPa 0,0 l/m 0,6 km/h (0 Bft) NW 314 0 min 12 W/m 2,7 C 5,4 C 6,4 km/h (2 Bft)
19.01.2020 16:05 5,4 C 83 % 1038,5 hPa 0,0 l/m 0,7 km/h (0 Bft) NW 313 0 min 16 W/m 2,7 C 5,4 C 4,8 km/h (1 Bft)
19.01.2020 16:00 5,6 C 82 % 1038,4 hPa 0,0 l/m 2,8 km/h (1 Bft) NW 313 0 min 23 W/m 2,8 C 5,6 C 8,0 km/h (2 Bft)
19.01.2020 15:55 5,7 C 82 % 1038,3 hPa 0,0 l/m 0,5 km/h (0 Bft) NW 312 0 min 28 W/m 2,9 C 5,7 C 3,2 km/h (1 Bft)
19.01.2020 15:50 5,7 C 81 % 1038,2 hPa 0,0 l/m 0,9 km/h (0 Bft) NW 318 0 min 42 W/m 2,7 C 5,7 C 6,4 km/h (2 Bft)
19.01.2020 15:45 5,8 C 81 % 1038,1 hPa 0,0 l/m 0,4 km/h (0 Bft) NW 318 0 min 40 W/m 2,8 C 5,8 C 3,2 km/h (1 Bft)
19.01.2020 15:40 6,0 C 80 % 1038,1 hPa 0,0 l/m 0,8 km/h (0 Bft) NW 318 0 min 39 W/m 2,8 C 6,0 C 8,0 km/h (2 Bft)
19.01.2020 15:35 6,1 C 81 % 1038,0 hPa 0,0 l/m 0,2 km/h (0 Bft) NW 307 0 min 46 W/m 3,1 C 6,1 C 4,8 km/h (1 Bft)
19.01.2020 15:30 5,9 C 82 % 1037,9 hPa 0,0 l/m 0,0 km/h (0 Bft) NW 307 0 min 81 W/m 3,1 C 5,9 C 0,0 km/h (0 Bft)
19.01.2020 15:25 5,7 C 83 % 1037,8 hPa 0,0 l/m 0,0 km/h (0 Bft) NW 307 0 min 125 W/m 3,0 C 5,7 C 0,0 km/h (0 Bft)
19.01.2020 15:20 5,5 C 85 % 1037,8 hPa 0,0 l/m 0,0 km/h (0 Bft) NW 307 5 min 163 W/m 3,2 C 5,5 C 1,6 km/h (1 Bft)
19.01.2020 15:15 5,3 C 85 % 1037,8 hPa 0,0 l/m 0,0 km/h (0 Bft) NW 307 5 min 167 W/m 3,0 C 5,3 C 0,0 km/h (0 Bft)
19.01.2020 15:10 5,3 C 85 % 1037,8 hPa 0,0 l/m 0,0 km/h (0 Bft) NW 307 0 min 69 W/m 3,0 C 5,3 C 0,0 km/h (0 Bft)
19.01.2020 15:05 5,3 C 85 % 1037,7 hPa 0,0 l/m 0,0 km/h (0 Bft) NW 307 0 min 62 W/m 3,0 C 5,3 C 0,0 km/h (0 Bft)
19.01.2020 15:00 5,3 C 85 % 1037,7 hPa 0,0 l/m 0,0 km/h (0 Bft) NW 307 0 min 62 W/m 3,0 C 5,3 C 0,0 km/h (0 Bft)
19.01.2020 14:55 5,3 C 86 % 1037,7 hPa 0,0 l/m 0,0 km/h (0 Bft) NW 307 0 min 62 W/m 3,2 C 5,3 C 0,0 km/h (0 Bft)
19.01.2020 14:50 5,3 C 86 % 1037,6 hPa 0,0 l/m 0,0 km/h (0 Bft) NW 307 0 min 63 W/m 3,2 C 5,3 C 0,0 km/h (0 Bft)
19.01.2020 14:45 5,3 C 85 % 1037,6 hPa 0,0 l/m 1,7 km/h (1 Bft) NW 307 0 min 65 W/m 3,0 C 5,3 C 8,0 km/h (2 Bft)
19.01.2020 14:40 5,3 C 86 % 1037,6 hPa 0,0 l/m 2,1 km/h (1 Bft) NW 307 0 min 84 W/m 3,2 C 5,3 C 6,4 km/h (2 Bft)
19.01.2020 14:35 5,3 C 86 % 1037,5 hPa 0,0 l/m 0,0 km/h (0 Bft) NW 307 0 min 76 W/m 3,2 C 5,3 C 0,0 km/h (0 Bft)
19.01.2020 14:30 5,2 C 86 % 1037,5 hPa 0,0 l/m 0,4 km/h (0 Bft) NW 307 0 min 77 W/m 3,1 C 5,2 C 4,8 km/h (1 Bft)
19.01.2020 14:25 5,2 C 86 % 1037,5 hPa 0,0 l/m 1,7 km/h (1 Bft) NW 307 0 min 105 W/m 3,1 C 5,2 C 8,0 km/h (2 Bft)
19.01.2020 14:20 5,2 C 86 % 1037,6 hPa 0,0 l/m 0,8 km/h (0 Bft) NW 307 0 min 93 W/m 3,1 C 5,2 C 6,4 km/h (2 Bft)
19.01.2020 14:15 5,2 C 86 % 1037,5 hPa 0,0 l/m 0,0 km/h (0 Bft) NW 313 0 min 60 W/m 3,1 C 5,2 C 0,0 km/h (0 Bft)
19.01.2020 14:10 5,2 C 86 % 1037,5 hPa 0,0 l/m 0,9 km/h (0 Bft) NW 313 0 min 46 W/m 3,1 C 5,2 C 6,4 km/h (2 Bft)
19.01.2020 14:05 5,3 C 85 % 1037,5 hPa 0,0 l/m 0,0 km/h (0 Bft) NW 313 0 min 62 W/m 3,0 C 5,3 C 1,6 km/h (1 Bft)
19.01.2020 14:00 5,3 C 85 % 1037,4 hPa 0,0 l/m 1,2 km/h (1 Bft) NW 313 0 min 74 W/m 3,0 C 5,3 C 4,8 km/h (1 Bft)
19.01.2020 13:55 5,4 C 85 % 1037,4 hPa 0,0 l/m 0,0 km/h (0 Bft) NW 313 0 min 74 W/m 3,1 C 5,4 C 0,0 km/h (0 Bft)
19.01.2020 13:50 5,4 C 85 % 1037,2 hPa 0,0 l/m 0,0 km/h (0 Bft) NW 313 0 min 88 W/m 3,1 C 5,4 C 0,0 km/h (0 Bft)
19.01.2020 13:45 5,4 C 84 % 1037,2 hPa 0,0 l/m 0,6 km/h (0 Bft) NW 313 0 min 107 W/m 2,9 C 5,4 C 4,8 km/h (1 Bft)
19.01.2020 13:40 5,5 C 84 % 1037,0 hPa 0,0 l/m 1,4 km/h (1 Bft) NW 313 0 min 114 W/m 3,0 C 5,5 C 8,0 km/h (2 Bft)
19.01.2020 13:35 5,4 C 86 % 1037,0 hPa 0,0 l/m 0,0 km/h (0 Bft) NW 316 0 min 149 W/m 3,3 C 5,4 C 0,0 km/h (0 Bft)
19.01.2020 13:30 5,3 C 86 % 1037,0 hPa 0,0 l/m 0,0 km/h (0 Bft) NW 316 5 min 193 W/m 3,2 C 5,3 C 0,0 km/h (0 Bft)
19.01.2020 13:25 5,3 C 84 % 1037,0 hPa 0,0 l/m 1,0 km/h (0 Bft) NW 316 5 min 153 W/m 2,8 C 5,3 C 4,8 km/h (1 Bft)
19.01.2020 13:20 5,3 C 85 % 1036,9 hPa 0,0 l/m 1,3 km/h (1 Bft) NW 315 5 min 197 W/m 3,0 C 5,3 C 6,4 km/h (2 Bft)
19.01.2020 13:15 5,1 C 85 % 1036,9 hPa 0,0 l/m 2,9 km/h (1 Bft) NW 315 5 min 153 W/m 2,8 C 5,1 C 8,0 km/h (2 Bft)
19.01.2020 13:10 5,2 C 84 % 1036,9 hPa 0,0 l/m 2,5 km/h (1 Bft) NW 315 5 min 207 W/m 2,7 C 5,2 C 8,0 km/h (2 Bft)
19.01.2020 13:05 5,4 C 87 % 1036,8 hPa 0,0 l/m 0,2 km/h (0 Bft) NW 318 5 min 221 W/m 3,4 C 5,4 C 4,8 km/h (1 Bft)
19.01.2020 13:00 4,9 C 87 % 1036,9 hPa 0,0 l/m 0,0 km/h (0 Bft) NW 318 0 min 148 W/m 2,9 C 4,9 C 0,0 km/h (0 Bft)
19.01.2020 12:55 4,8 C 87 % 1036,8 hPa 0,0 l/m 0,5 km/h (0 Bft) NW 319 5 min 153 W/m 2,8 C 4,8 C 3,2 km/h (1 Bft)
19.01.2020 12:50 5,1 C 85 % 1036,7 hPa 0,0 l/m 1,1 km/h (1 Bft) NW 319 0 min 118 W/m 2,8 C 5,1 C 6,4 km/h (2 Bft)
19.01.2020 12:45 5,2 C 86 % 1036,7 hPa 0,0 l/m 0,5 km/h (0 Bft) NW 318 5 min 225 W/m 3,1 C 5,2 C 6,4 km/h (2 Bft)
19.01.2020 12:40 4,9 C 87 % 1036,7 hPa 0,0 l/m 0,0 km/h (0 Bft) NW 318 5 min 236 W/m 2,9 C 4,9 C 0,0 km/h (0 Bft)
19.01.2020 12:35 4,8 C 88 % 1036,6 hPa 0,0 l/m 0,1 km/h (0 Bft) NW 319 5 min 255 W/m 3,0 C 4,8 C 3,2 km/h (1 Bft)
19.01.2020 12:30 4,5 C 89 % 1036,6 hPa 0,0 l/m 0,0 km/h (0 Bft) NW 319 5 min 248 W/m 2,8 C 4,5 C 0,0 km/h (0 Bft)
19.01.2020 12:25 4,0 C 90 % 1036,6 hPa 0,0 l/m 0,1 km/h (0 Bft) NW 318 5 min 248 W/m 2,5 C 4,0 C 1,6 km/h (1 Bft)
19.01.2020 12:20 4,1 C 90 % 1036,5 hPa 0,0 l/m 1,0 km/h (0 Bft) NW 318 0 min 100 W/m 2,6 C 4,1 C 4,8 km/h (1 Bft)
19.01.2020 12:15 4,1 C 93 % 1036,5 hPa 0,0 l/m 0,0 km/h (0 Bft) NW 319 5 min 292 W/m 3,1 C 4,1 C 3,2 km/h (1 Bft)
19.01.2020 12:10 3,0 C 94 % 1036,5 hPa 0,0 l/m 0,0 km/h (0 Bft) NW 319 5 min 193 W/m 2,1 C 3,0 C 0,0 km/h (0 Bft)
19.01.2020 12:05 2,9 C 94 % 1036,6 hPa 0,0 l/m 0,0 km/h (0 Bft) NW 318 0 min 81 W/m 2,0 C 2,9 C 0,0 km/h (0 Bft)
19.01.2020 12:00 2,9 C 94 % 1036,7 hPa 0,0 l/m 0,0 km/h (0 Bft) NW 319 0 min 46 W/m 2,0 C 2,9 C 0,0 km/h (0 Bft)
19.01.2020 11:55 2,9 C 95 % 1036,7 hPa 0,0 l/m 0,0 km/h (0 Bft) NW 319 0 min 46 W/m 2,2 C 2,9 C 0,0 km/h (0 Bft)
19.01.2020 11:50 2,9 C 95 % 1036,6 hPa 0,0 l/m 0,0 km/h (0 Bft) NW 318 0 min 49 W/m 2,2 C 2,9 C 0,0 km/h (0 Bft)
19.01.2020 11:45 2,9 C 95 % 1036,5 hPa 0,0 l/m 0,0 km/h (0 Bft) NW 318 0 min 46 W/m 2,2 C 2,9 C 0,0 km/h (0 Bft)
19.01.2020 11:40 2,9 C 95 % 1036,4 hPa 0,0 l/m 0,0 km/h (0 Bft) NW 319 0 min 63 W/m 2,2 C 2,9 C 0,0 km/h (0 Bft)
19.01.2020 11:35 2,9 C 95 % 1036,5 hPa 0,0 l/m 0,0 km/h (0 Bft) NW 319 0 min 62 W/m 2,2 C 2,9 C 0,0 km/h (0 Bft)
19.01.2020 11:30 2,9 C 95 % 1036,4 hPa 0,0 l/m 0,0 km/h (0 Bft) NW 318 0 min 77 W/m 2,2 C 2,9 C 0,0 km/h (0 Bft)
19.01.2020 11:25 2,8 C 95 % 1036,4 hPa 0,0 l/m 0,0 km/h (0 Bft) NW 319 0 min 56 W/m 2,1 C 2,8 C 0,0 km/h (0 Bft)
19.01.2020 11:20 2,8 C 95 % 1036,3 hPa 0,0 l/m 0,0 km/h (0 Bft) NW 319 0 min 62 W/m 2,1 C 2,8 C 0,0 km/h (0 Bft)
19.01.2020 11:15 2,8 C 95 % 1036,3 hPa 0,0 l/m 0,0 km/h (0 Bft) NW 319 0 min 77 W/m 2,1 C 2,8 C 0,0 km/h (0 Bft)
19.01.2020 11:10 2,8 C 95 % 1036,2 hPa 0,0 l/m 0,0 km/h (0 Bft) NW 318 0 min 116 W/m 2,1 C 2,8 C 0,0 km/h (0 Bft)
19.01.2020 11:05 2,7 C 95 % 1036,2 hPa 0,0 l/m 0,0 km/h (0 Bft) NW 318 0 min 105 W/m 2,0 C 2,7 C 0,0 km/h (0 Bft)
19.01.2020 11:00 2,7 C 95 % 1036,1 hPa 0,0 l/m 0,0 km/h (0 Bft) NW 319 0 min 93 W/m 2,0 C 2,7 C 0,0 km/h (0 Bft)
19.01.2020 10:55 2,7 C 95 % 1036,1 hPa 0,0 l/m 0,0 km/h (0 Bft) NW 318 0 min 69 W/m 2,0 C 2,7 C 0,0 km/h (0 Bft)
19.01.2020 10:50 2,7 C 95 % 1036,0 hPa 0,0 l/m 0,2 km/h (0 Bft) NW 318 0 min 76 W/m 2,0 C 2,7 C 3,2 km/h (1 Bft)
19.01.2020 10:45 2,8 C 95 % 1035,9 hPa 0,0 l/m 0,0 km/h (0 Bft) NW 319 0 min 76 W/m 2,1 C 2,8 C 0,0 km/h (0 Bft)
19.01.2020 10:40 2,9 C 96 % 1035,7 hPa 0,0 l/m 0,0 km/h (0 Bft) NW 319 0 min 69 W/m 2,3 C 2,9 C 0,0 km/h (0 Bft)
19.01.2020 10:35 2,9 C 96 % 1035,6 hPa 0,0 l/m 0,0 km/h (0 Bft) NW 318 0 min 67 W/m 2,3 C 2,9 C 0,0 km/h (0 Bft)
19.01.2020 10:30 2,9 C 96 % 1035,5 hPa 0,0 l/m 0,0 km/h (0 Bft) NW 318 0 min 62 W/m 2,3 C 2,9 C 0,0 km/h (0 Bft)
19.01.2020 10:25 2,9 C 97 % 1035,5 hPa 0,0 l/m 0,0 km/h (0 Bft) NW 319 0 min 81 W/m 2,5 C 2,9 C 0,0 km/h (0 Bft)
19.01.2020 10:20 2,7 C 97 % 1035,4 hPa 0,0 l/m 0,0 km/h (0 Bft) NW 319 5 min 206 W/m 2,3 C 2,7 C 0,0 km/h (0 Bft)
19.01.2020 10:15 2,4 C 97 % 1035,3 hPa 0,0 l/m 0,0 km/h (0 Bft) NW 318 5 min 209 W/m 2,0 C 2,4 C 0,0 km/h (0 Bft)
19.01.2020 10:10 1,7 C 96 % 1035,2 hPa 0,0 l/m 0,0 km/h (0 Bft) NW 319 0 min 121 W/m 1,1 C 1,7 C 0,0 km/h (0 Bft)
19.01.2020 10:05 1,5 C 96 % 1035,1 hPa 0,0 l/m 0,0 km/h (0 Bft) NW 319 0 min 88 W/m 0,9 C 1,5 C 0,0 km/h (0 Bft)
19.01.2020 10:00 1,4 C 96 % 1035,0 hPa 0,0 l/m 0,0 km/h (0 Bft) NW 319 0 min 100 W/m 0,8 C 1,4 C 0,0 km/h (0 Bft)
19.01.2020 09:55 1,3 C 96 % 1034,9 hPa 0,0 l/m 0,0 km/h (0 Bft) NW 318 0 min 58 W/m 0,7 C 1,3 C 0,0 km/h (0 Bft)
19.01.2020 09:50 1,3 C 96 % 1034,9 hPa 0,0 l/m 0,0 km/h (0 Bft) NW 319 0 min 37 W/m 0,7 C 1,3 C 0,0 km/h (0 Bft)
19.01.2020 09:45 1,2 C 96 % 1034,8 hPa 0,0 l/m 0,0 km/h (0 Bft) NW 319 0 min 37 W/m 0,6 C 1,2 C 0,0 km/h (0 Bft)
19.01.2020 09:40 1,2 C 96 % 1034,7 hPa 0,0 l/m 0,0 km/h (0 Bft) NW 318 0 min 42 W/m 0,6 C 1,2 C 0,0 km/h (0 Bft)
19.01.2020 09:35 1,1 C 96 % 1034,7 hPa 0,0 l/m 0,0 km/h (0 Bft) NW 318 0 min 44 W/m 0,5 C 1,1 C 0,0 km/h (0 Bft)
19.01.2020 09:30 1,1 C 96 % 1034,6 hPa 0,0 l/m 0,0 km/h (0 Bft) NW 318 0 min 40 W/m 0,5 C 1,1 C 0,0 km/h (0 Bft)
19.01.2020 09:25 1,1 C 96 % 1034,5 hPa 0,0 l/m 0,0 km/h (0 Bft) NW 319 0 min 39 W/m 0,5 C 1,1 C 0,0 km/h (0 Bft)
19.01.2020 09:20 1,1 C 96 % 1034,4 hPa 0,0 l/m 0,0 km/h (0 Bft) NW 318 0 min 37 W/m 0,5 C 1,1 C 0,0 km/h (0 Bft)
19.01.2020 09:15 1,0 C 96 % 1034,4 hPa 0,0 l/m 0,0 km/h (0 Bft) NW 319 0 min 28 W/m 0,4 C 1,0 C 0,0 km/h (0 Bft)
19.01.2020 09:10 0,9 C 96 % 1034,3 hPa 0,0 l/m 0,0 km/h (0 Bft) NW 319 0 min 26 W/m 0,3 C 0,9 C 0,0 km/h (0 Bft)
19.01.2020 09:05 0,7 C 96 % 1034,1 hPa 0,0 l/m 1,8 km/h (1 Bft) NW 319 0 min 18 W/m 0,1 C 0,7 C 4,8 km/h (1 Bft)
19.01.2020 09:00 0,5 C 96 % 1034,0 hPa 0,0 l/m 1,0 km/h (0 Bft) NW 317 0 min 21 W/m -0,1 C 0,5 C 4,8 km/h (1 Bft)
19.01.2020 08:55 0,4 C 96 % 1033,9 hPa 0,0 l/m 0,0 km/h (0 Bft) NW 317 0 min 16 W/m -0,2 C 0,4 C 0,0 km/h (0 Bft)
19.01.2020 08:50 0,4 C 96 % 1033,8 hPa 0,0 l/m 0,0 km/h (0 Bft) NW 317 0 min 12 W/m -0,2 C 0,4 C 0,0 km/h (0 Bft)
19.01.2020 08:45 0,5 C 96 % 1033,8 hPa 0,0 l/m 0,0 km/h (0 Bft) NW 317 0 min 12 W/m -0,1 C 0,5 C 0,0 km/h (0 Bft)
19.01.2020 08:40 0,5 C 96 % 1033,8 hPa 0,0 l/m 0,0 km/h (0 Bft) NW 317 0 min 11 W/m -0,1 C 0,5 C 0,0 km/h (0 Bft)
19.01.2020 08:35 0,5 C 96 % 1033,8 hPa 0,0 l/m 0,0 km/h (0 Bft) NW 317 0 min 11 W/m -0,1 C 0,5 C 0,0 km/h (0 Bft)
19.01.2020 08:30 0,5 C 96 % 1033,6 hPa 0,0 l/m 0,0 km/h (0 Bft) NW 317 0 min 7 W/m -0,1 C 0,5 C 0,0 km/h (0 Bft)
19.01.2020 08:25 0,5 C 96 % 1033,6 hPa 0,0 l/m 0,0 km/h (0 Bft) NW 317 0 min 5 W/m -0,1 C 0,5 C 0,0 km/h (0 Bft)
19.01.2020 08:20 0,5 C 96 % 1033,5 hPa 0,0 l/m 0,0 km/h (0 Bft) NW 317 0 min 0 W/m -0,1 C 0,5 C 0,0 km/h (0 Bft)
19.01.2020 08:15 0,5 C 96 % 1033,4 hPa 0,0 l/m 0,0 km/h (0 Bft) NW 317 0 min 0 W/m -0,1 C 0,5 C 0,0 km/h (0 Bft)
19.01.2020 08:10 0,5 C 96 % 1033,4 hPa 0,0 l/m 0,0 km/h (0 Bft) NW 317 0 min 0 W/m -0,1 C 0,5 C 0,0 km/h (0 Bft)
19.01.2020 08:05 0,5 C 96 % 1033,3 hPa 0,0 l/m 0,0 km/h (0 Bft) NW 317 0 min 0 W/m -0,1 C 0,5 C 0,0 km/h (0 Bft)
19.01.2020 08:00 0,4 C 96 % 1033,2 hPa 0,0 l/m 0,0 km/h (0 Bft) NW 317 0 min 0 W/m -0,2 C 0,4 C 0,0 km/h (0 Bft)
19.01.2020 07:55 0,4 C 96 % 1033,1 hPa 0,0 l/m 0,0 km/h (0 Bft) NW 317 0 min 0 W/m -0,2 C 0,4 C 0,0 km/h (0 Bft)
19.01.2020 07:50 0,4 C 96 % 1032,9 hPa 0,0 l/m 0,0 km/h (0 Bft) NW 317 0 min 0 W/m -0,2 C 0,4 C 0,0 km/h (0 Bft)
19.01.2020 07:45 0,3 C 96 % 1032,8 hPa 0,0 l/m 0,0 km/h (0 Bft) NW 317 0 min 0 W/m -0,3 C 0,3 C 0,0 km/h (0 Bft)
19.01.2020 07:40 0,3 C 96 % 1032,8 hPa 0,0 l/m 0,0 km/h (0 Bft) NW 317 0 min 0 W/m -0,3 C 0,3 C 0,0 km/h (0 Bft)
19.01.2020 07:35 0,3 C 96 % 1032,7 hPa 0,0 l/m 0,0 km/h (0 Bft) NW 317 0 min 0 W/m -0,3 C 0,3 C 0,0 km/h (0 Bft)
19.01.2020 07:30 0,3 C 96 % 1032,8 hPa 0,0 l/m 0,0 km/h (0 Bft) NW 317 0 min 0 W/m -0,3 C 0,3 C 0,0 km/h (0 Bft)
19.01.2020 07:25 0,2 C 96 % 1032,7 hPa 0,0 l/m 0,0 km/h (0 Bft) NW 317 0 min 0 W/m -0,4 C 0,2 C 0,0 km/h (0 Bft)
19.01.2020 07:20 0,2 C 96 % 1032,6 hPa 0,0 l/m 0,0 km/h (0 Bft) NW 317 0 min 0 W/m -0,4 C 0,2 C 0,0 km/h (0 Bft)
19.01.2020 07:15 0,1 C 96 % 1032,5 hPa 0,0 l/m 0,0 km/h (0 Bft) NW 317 0 min 0 W/m -0,5 C 0,1 C 0,0 km/h (0 Bft)
19.01.2020 07:10 0,0 C 96 % 1032,5 hPa 0,0 l/m 0,0 km/h (0 Bft) NW 317 0 min 0 W/m -0,6 C 0,0 C 0,0 km/h (0 Bft)
19.01.2020 07:05 -0,2 C 96 % 1032,4 hPa 0,0 l/m 0,0 km/h (0 Bft) NW 317 0 min 0 W/m -0,8 C -0,2 C 0,0 km/h (0 Bft)
19.01.2020 07:00 -0,2 C 96 % 1032,4 hPa 0,0 l/m 0,0 km/h (0 Bft) NW 317 0 min 0 W/m -0,8 C -0,2 C 0,0 km/h (0 Bft)
19.01.2020 06:55 -0,3 C 96 % 1032,4 hPa 0,0 l/m 0,0 km/h (0 Bft) NW 317 0 min 0 W/m -0,9 C -0,3 C 0,0 km/h (0 Bft)
19.01.2020 06:50 -0,4 C 96 % 1032,3 hPa 0,0 l/m 0,0 km/h (0 Bft) NW 317 0 min 0 W/m -1,0 C -0,4 C 0,0 km/h (0 Bft)
19.01.2020 06:45 -0,6 C 96 % 1032,2 hPa 0,0 l/m 0,0 km/h (0 Bft) NW 317 0 min 0 W/m -1,2 C -0,6 C 0,0 km/h (0 Bft)
19.01.2020 06:40 -0,8 C 95 % 1032,3 hPa 0,0 l/m 0,0 km/h (0 Bft) NW 317 0 min 0 W/m -1,5 C -0,8 C 0,0 km/h (0 Bft)
19.01.2020 06:35 -0,8 C 95 % 1032,2 hPa 0,0 l/m 0,0 km/h (0 Bft) NW 317 0 min 0 W/m -1,5 C -0,8 C 0,0 km/h (0 Bft)
19.01.2020 06:30 -0,7 C 95 % 1032,2 hPa 0,0 l/m 0,0 km/h (0 Bft) NW 317 0 min 0 W/m -1,4 C -0,7 C 0,0 km/h (0 Bft)
19.01.2020 06:25 -0,5 C 95 % 1032,0 hPa 0,0 l/m 0,0 km/h (0 Bft) NW 317 0 min 0 W/m -1,2 C -0,5 C 0,0 km/h (0 Bft)
19.01.2020 06:20 -0,4 C 95 % 1031,9 hPa 0,0 l/m 0,0 km/h (0 Bft) NW 317 0 min 0 W/m -1,1 C -0,4 C 0,0 km/h (0 Bft)
19.01.2020 06:15 -0,4 C 95 % 1031,8 hPa 0,0 l/m 0,0 km/h (0 Bft) NW 317 0 min 0 W/m -1,1 C -0,4 C 0,0 km/h (0 Bft)
19.01.2020 06:10 -0,3 C 95 % 1031,7 hPa 0,0 l/m 0,0 km/h (0 Bft) NW 317 0 min 0 W/m -1,0 C -0,3 C 0,0 km/h (0 Bft)
19.01.2020 06:05 -0,2 C 95 % 1031,7 hPa 0,0 l/m 0,0 km/h (0 Bft) NW 317 0 min 0 W/m -0,9 C -0,2 C 0,0 km/h (0 Bft)
19.01.2020 05:55 0,1 C 95 % 1031,6 hPa 0,0 l/m 0,0 km/h (0 Bft) N 0 0 min 0 W/m -0,6 C 0,1 C 0,0 km/h (0 Bft)
19.01.2020 05:50 0,2 C 95 % 1031,6 hPa 0,0 l/m 0,0 km/h (0 Bft) N 0 0 min 0 W/m -0,5 C 0,2 C 0,0 km/h (0 Bft)
19.01.2020 05:45 0,3 C 95 % 1031,5 hPa 0,0 l/m 0,0 km/h (0 Bft) N 0 0 min 0 W/m -0,4 C 0,3 C 0,0 km/h (0 Bft)
19.01.2020 05:40 0,3 C 95 % 1031,5 hPa 0,0 l/m 0,0 km/h (0 Bft) N 0 0 min 0 W/m -0,4 C 0,3 C 0,0 km/h (0 Bft)
19.01.2020 05:35 0,4 C 95 % 1031,4 hPa 0,0 l/m 0,0 km/h (0 Bft) N 0 0 min 0 W/m -0,3 C 0,4 C 0,0 km/h (0 Bft)
19.01.2020 05:30 0,5 C 95 % 1031,3 hPa 0,0 l/m 0,0 km/h (0 Bft) N 0 0 min 0 W/m -0,2 C 0,5 C 0,0 km/h (0 Bft)
19.01.2020 05:25 0,6 C 96 % 1031,3 hPa 0,0 l/m 0,0 km/h (0 Bft) N 0 0 min 0 W/m 0,0 C 0,6 C 0,0 km/h (0 Bft)
19.01.2020 05:20 0,6 C 96 % 1031,2 hPa 0,0 l/m 0,0 km/h (0 Bft) N 0 0 min 0 W/m 0,0 C 0,6 C 0,0 km/h (0 Bft)
19.01.2020 05:15 0,7 C 96 % 1031,2 hPa 0,0 l/m 0,0 km/h (0 Bft) N 0 0 min 0 W/m 0,1 C 0,7 C 0,0 km/h (0 Bft)
19.01.2020 05:10 0,7 C 96 % 1031,2 hPa 0,0 l/m 0,0 km/h (0 Bft) N 0 0 min 0 W/m 0,1 C 0,7 C 0,0 km/h (0 Bft)
19.01.2020 05:05 0,7 C 96 % 1031,1 hPa 0,0 l/m 0,0 km/h (0 Bft) N 0 0 min 0 W/m 0,1 C 0,7 C 0,0 km/h (0 Bft)
19.01.2020 05:00 0,7 C 96 % 1031,2 hPa 0,0 l/m 0,0 km/h (0 Bft) N 0 0 min 0 W/m 0,1 C 0,7 C 0,0 km/h (0 Bft)
19.01.2020 04:55 0,7 C 96 % 1031,2 hPa 0,0 l/m 0,0 km/h (0 Bft) N 0 0 min 0 W/m 0,1 C 0,7 C 0,0 km/h (0 Bft)
19.01.2020 04:50 0,7 C 96 % 1031,2 hPa 0,0 l/m 0,0 km/h (0 Bft) N 0 0 min 0 W/m 0,1 C 0,7 C 0,0 km/h (0 Bft)
19.01.2020 04:45 0,7 C 96 % 1031,2 hPa 0,0 l/m 0,0 km/h (0 Bft) N 0 0 min 0 W/m 0,1 C 0,7 C 0,0 km/h (0 Bft)
19.01.2020 04:40 0,7 C 96 % 1031,1 hPa 0,0 l/m 0,0 km/h (0 Bft) N 0 0 min 0 W/m 0,1 C 0,7 C 0,0 km/h (0 Bft)
19.01.2020 04:35 0,7 C 96 % 1031,0 hPa 0,0 l/m 0,0 km/h (0 Bft) N 0 0 min 0 W/m 0,1 C 0,7 C 0,0 km/h (0 Bft)
19.01.2020 04:30 0,7 C 96 % 1030,9 hPa 0,0 l/m 0,0 km/h (0 Bft) N 0 0 min 0 W/m 0,1 C 0,7 C 0,0 km/h (0 Bft)
19.01.2020 04:25 0,7 C 96 % 1030,9 hPa 0,0 l/m 0,0 km/h (0 Bft) N 0 0 min 0 W/m 0,1 C 0,7 C 0,0 km/h (0 Bft)
19.01.2020 04:20 0,6 C 96 % 1030,9 hPa 0,0 l/m 0,0 km/h (0 Bft) N 0 0 min 0 W/m 0,0 C 0,6 C 0,0 km/h (0 Bft)
19.01.2020 04:15 0,6 C 96 % 1030,8 hPa 0,0 l/m 0,0 km/h (0 Bft) N 0 0 min 0 W/m 0,0 C 0,6 C 0,0 km/h (0 Bft)
19.01.2020 04:10 0,6 C 96 % 1030,8 hPa 0,0 l/m 0,0 km/h (0 Bft) N 0 0 min 0 W/m 0,0 C 0,6 C 0,0 km/h (0 Bft)
19.01.2020 04:05 0,5 C 95 % 1030,7 hPa 0,0 l/m 0,0 km/h (0 Bft) N 0 0 min 0 W/m -0,2 C 0,5 C 0,0 km/h (0 Bft)
19.01.2020 04:00 0,4 C 95 % 1030,7 hPa 0,0 l/m 0,0 km/h (0 Bft) N 0 0 min 0 W/m -0,3 C 0,4 C 0,0 km/h (0 Bft)
19.01.2020 03:55 0,4 C 95 % 1030,6 hPa 0,0 l/m 0,0 km/h (0 Bft) N 0 0 min 0 W/m -0,3 C 0,4 C 0,0 km/h (0 Bft)
19.01.2020 03:50 0,5 C 95 % 1030,6 hPa 0,0 l/m 0,0 km/h (0 Bft) N 0 0 min 0 W/m -0,2 C 0,5 C 0,0 km/h (0 Bft)
19.01.2020 03:45 0,6 C 95 % 1030,6 hPa 0,0 l/m 0,0 km/h (0 Bft) N 0 0 min 0 W/m -0,1 C 0,6 C 0,0 km/h (0 Bft)
19.01.2020 03:40 0,6 C 96 % 1030,4 hPa 0,0 l/m 0,0 km/h (0 Bft) NW 315 0 min 0 W/m 0,0 C 0,6 C 1,6 km/h (1 Bft)
19.01.2020 03:35 0,6 C 96 % 1030,4 hPa 0,0 l/m 0,0 km/h (0 Bft) N 0 0 min 0 W/m 0,0 C 0,6 C 0,0 km/h (0 Bft)
19.01.2020 03:30 0,6 C 96 % 1030,4 hPa 0,0 l/m 0,0 km/h (0 Bft) N 0 0 min 0 W/m 0,0 C 0,6 C 0,0 km/h (0 Bft)
19.01.2020 03:25 0,6 C 96 % 1030,4 hPa 0,0 l/m 0,0 km/h (0 Bft) N 0 0 min 0 W/m 0,0 C 0,6 C 0,0 km/h (0 Bft)
19.01.2020 03:20 0,6 C 96 % 1030,4 hPa 0,0 l/m 0,0 km/h (0 Bft) N 0 0 min 0 W/m 0,0 C 0,6 C 0,0 km/h (0 Bft)
19.01.2020 03:15 0,6 C 95 % 1030,3 hPa 0,0 l/m 0,0 km/h (0 Bft) N 0 0 min 0 W/m -0,1 C 0,6 C 0,0 km/h (0 Bft)
19.01.2020 03:10 0,5 C 95 % 1030,2 hPa 0,0 l/m 0,0 km/h (0 Bft) N 0 0 min 0 W/m -0,2 C 0,5 C 0,0 km/h (0 Bft)
19.01.2020 03:05 0,4 C 95 % 1030,2 hPa 0,0 l/m 0,0 km/h (0 Bft) N 0 0 min 0 W/m -0,3 C 0,4 C 0,0 km/h (0 Bft)
19.01.2020 03:00 0,3 C 96 % 1030,2 hPa 0,0 l/m 0,0 km/h (0 Bft) N 0 0 min 0 W/m -0,3 C 0,3 C 0,0 km/h (0 Bft)
19.01.2020 02:55 0,2 C 95 % 1030,1 hPa 0,0 l/m 1,6 km/h (1 Bft) NW 315 0 min 0 W/m -0,5 C 0,2 C 4,8 km/h (1 Bft)
19.01.2020 02:50 0,1 C 95 % 1030,1 hPa 0,0 l/m 3,2 km/h (1 Bft) NW 315 0 min 0 W/m -0,6 C 0,1 C 6,4 km/h (2 Bft)
19.01.2020 02:45 -0,1 C 95 % 1030,0 hPa 0,0 l/m 0,0 km/h (0 Bft) NW 315 0 min 0 W/m -0,8 C -0,1 C 3,2 km/h (1 Bft)
19.01.2020 02:40 -0,2 C 95 % 1029,9 hPa 0,0 l/m 0,0 km/h (0 Bft) NW 315 0 min 0 W/m -0,9 C -0,2 C 3,2 km/h (1 Bft)
19.01.2020 02:35 -0,2 C 95 % 1029,9 hPa 0,0 l/m 0,0 km/h (0 Bft) N 0 0 min 0 W/m -0,9 C -0,2 C 0,0 km/h (0 Bft)
19.01.2020 02:30 -0,2 C 95 % 1029,8 hPa 0,0 l/m 0,0 km/h (0 Bft) N 0 0 min 0 W/m -0,9 C -0,2 C 0,0 km/h (0 Bft)
19.01.2020 02:25 -0,1 C 95 % 1029,9 hPa 0,0 l/m 0,0 km/h (0 Bft) N 0 0 min 0 W/m -0,8 C -0,1 C 0,0 km/h (0 Bft)
19.01.2020 02:20 -0,1 C 95 % 1029,8 hPa 0,0 l/m 0,0 km/h (0 Bft) N 0 0 min 0 W/m -0,8 C -0,1 C 0,0 km/h (0 Bft)
19.01.2020 02:15 0,0 C 95 % 1029,7 hPa 0,0 l/m 0,0 km/h (0 Bft) N 0 0 min 0 W/m -0,7 C 0,0 C 0,0 km/h (0 Bft)
19.01.2020 02:10 0,0 C 94 % 1029,7 hPa 0,0 l/m 0,0 km/h (0 Bft) N 0 0 min 0 W/m -0,8 C 0,0 C 0,0 km/h (0 Bft)
19.01.2020 02:05 0,1 C 94 % 1029,7 hPa 0,0 l/m 0,0 km/h (0 Bft) N 0 0 min 0 W/m -0,7 C 0,1 C 0,0 km/h (0 Bft)
19.01.2020 02:00 0,3 C 94 % 1029,6 hPa 0,0 l/m 0,0 km/h (0 Bft) N 0 0 min 0 W/m -0,5 C 0,3 C 0,0 km/h (0 Bft)
19.01.2020 01:55 0,4 C 94 % 1029,5 hPa 0,0 l/m 0,0 km/h (0 Bft) N 0 0 min 0 W/m -0,5 C 0,4 C 0,0 km/h (0 Bft)
19.01.2020 01:50 0,6 C 95 % 1029,4 hPa 0,0 l/m 0,0 km/h (0 Bft) N 0 0 min 0 W/m -0,1 C 0,6 C 0,0 km/h (0 Bft)
19.01.2020 01:45 0,7 C 95 % 1029,4 hPa 0,0 l/m 0,0 km/h (0 Bft) N 0 0 min 0 W/m -0,0 C 0,7 C 0,0 km/h (0 Bft)
19.01.2020 01:40 0,7 C 95 % 1029,3 hPa 0,0 l/m 0,0 km/h (0 Bft) N 0 0 min 0 W/m -0,0 C 0,7 C 0,0 km/h (0 Bft)
19.01.2020 01:35 0,8 C 95 % 1029,2 hPa 0,0 l/m 0,0 km/h (0 Bft) N 0 0 min 0 W/m 0,1 C 0,8 C 0,0 km/h (0 Bft)
19.01.2020 01:30 0,9 C 95 % 1029,2 hPa 0,0 l/m 0,0 km/h (0 Bft) N 0 0 min 0 W/m 0,2 C 0,9 C 0,0 km/h (0 Bft)
19.01.2020 01:25 1,0 C 95 % 1029,2 hPa 0,0 l/m 0,0 km/h (0 Bft) N 0 0 min 0 W/m 0,3 C 1,0 C 0,0 km/h (0 Bft)
19.01.2020 01:20 1,1 C 95 % 1029,2 hPa 0,0 l/m 0,0 km/h (0 Bft) N 0 0 min 0 W/m 0,4 C 1,1 C 0,0 km/h (0 Bft)
19.01.2020 01:15 1,1 C 95 % 1029,2 hPa 0,0 l/m 0,0 km/h (0 Bft) N 0 0 min 0 W/m 0,4 C 1,1 C 0,0 km/h (0 Bft)
19.01.2020 01:10 1,1 C 95 % 1029,1 hPa 0,0 l/m 0,0 km/h (0 Bft) N 0 0 min 0 W/m 0,4 C 1,1 C 0,0 km/h (0 Bft)
19.01.2020 01:05 1,1 C 95 % 1029,0 hPa 0,0 l/m 0,0 km/h (0 Bft) N 0 0 min 0 W/m 0,4 C 1,1 C 0,0 km/h (0 Bft)
19.01.2020 01:00 1,1 C 95 % 1029,0 hPa 0,0 l/m 0,0 km/h (0 Bft) N 0 0 min 0 W/m 0,4 C 1,1 C 0,0 km/h (0 Bft)
19.01.2020 00:55 1,1 C 95 % 1029,0 hPa 0,0 l/m 0,0 km/h (0 Bft) N 0 0 min 0 W/m 0,4 C 1,1 C 0,0 km/h (0 Bft)
19.01.2020 00:50 1,2 C 95 % 1028,9 hPa 0,0 l/m 0,0 km/h (0 Bft) N 0 0 min 0 W/m 0,5 C 1,2 C 0,0 km/h (0 Bft)
19.01.2020 00:45 1,2 C 95 % 1028,9 hPa 0,0 l/m 0,0 km/h (0 Bft) N 0 0 min 0 W/m 0,5 C 1,2 C 0,0 km/h (0 Bft)
19.01.2020 00:40 1,2 C 95 % 1028,9 hPa 0,0 l/m 0,0 km/h (0 Bft) N 0 0 min 0 W/m 0,5 C 1,2 C 0,0 km/h (0 Bft)
19.01.2020 00:35 1,2 C 95 % 1028,8 hPa 0,0 l/m 0,0 km/h (0 Bft) NW 315 0 min 0 W/m 0,5 C 1,2 C 1,6 km/h (1 Bft)
19.01.2020 00:30 1,1 C 95 % 1028,8 hPa 0,0 l/m 0,0 km/h (0 Bft) N 0 0 min 0 W/m 0,4 C 1,1 C 0,0 km/h (0 Bft)
19.01.2020 00:25 1,1 C 95 % 1028,7 hPa 0,0 l/m 0,0 km/h (0 Bft) N 0 0 min 0 W/m 0,4 C 1,1 C 0,0 km/h (0 Bft)
19.01.2020 00:20 1,0 C 95 % 1028,7 hPa 0,0 l/m 0,0 km/h (0 Bft) N 0 0 min 0 W/m 0,3 C 1,0 C 0,0 km/h (0 Bft)
19.01.2020 00:15 0,9 C 95 % 1028,7 hPa 0,0 l/m 0,0 km/h (0 Bft) N 0 0 min 0 W/m 0,2 C 0,9 C 0,0 km/h (0 Bft)
19.01.2020 00:10 0,8 C 95 % 1028,6 hPa 0,0 l/m 0,0 km/h (0 Bft) NW 315 0 min 0 W/m 0,1 C 0,8 C 4,8 km/h (1 Bft)
19.01.2020 00:05 0,7 C 95 % 1028,5 hPa 0,0 l/m 0,0 km/h (0 Bft) NW 315 0 min 0 W/m -0,0 C 0,7 C 4,8 km/h (1 Bft)
19.01.2020 00:00 0,7 C 94 % 1028,5 hPa 0,0 l/m 0,0 km/h (0 Bft) N 0 0 min 0 W/m -0,2 C 0,7 C 0,0 km/h (0 Bft)
18.01.2020 23:55 0,7 C 94 % 1028,5 hPa 0,0 l/m 0,0 km/h (0 Bft) N 0 0 min 0 W/m -0,2 C 0,7 C 0,0 km/h (0 Bft)
18.01.2020 23:50 0,8 C 94 % 1028,4 hPa 0,0 l/m 0,0 km/h (0 Bft) N 0 0 min 0 W/m -0,1 C 0,8 C 0,0 km/h (0 Bft)
18.01.2020 23:45 0,9 C 94 % 1028,4 hPa 0,0 l/m 0,0 km/h (0 Bft) N 0 0 min 0 W/m 0,0 C 0,9 C 0,0 km/h (0 Bft)
18.01.2020 23:40 1,0 C 94 % 1028,3 hPa 0,0 l/m 0,0 km/h (0 Bft) N 0 0 min 0 W/m 0,1 C 1,0 C 0,0 km/h (0 Bft)
18.01.2020 23:35 1,1 C 94 % 1028,4 hPa 0,0 l/m 0,0 km/h (0 Bft) N 0 0 min 0 W/m 0,2 C 1,1 C 0,0 km/h (0 Bft)
18.01.2020 23:30 1,1 C 94 % 1028,5 hPa 0,0 l/m 0,0 km/h (0 Bft) N 0 0 min 0 W/m 0,2 C 1,1 C 0,0 km/h (0 Bft)
18.01.2020 23:25 1,1 C 94 % 1028,4 hPa 0,0 l/m 0,0 km/h (0 Bft) N 0 0 min 0 W/m 0,2 C 1,1 C 0,0 km/h (0 Bft)
18.01.2020 23:20 1,1 C 94 % 1028,3 hPa 0,0 l/m 0,0 km/h (0 Bft) N 0 0 min 0 W/m 0,2 C 1,1 C 0,0 km/h (0 Bft)
18.01.2020 23:15 1,2 C 94 % 1028,2 hPa 0,0 l/m 0,0 km/h (0 Bft) N 0 0 min 0 W/m 0,3 C 1,2 C 0,0 km/h (0 Bft)
18.01.2020 23:10 1,3 C 94 % 1028,2 hPa 0,0 l/m 0,0 km/h (0 Bft) N 0 0 min 0 W/m 0,4 C 1,3 C 0,0 km/h (0 Bft)
18.01.2020 23:05 1,3 C 94 % 1028,1 hPa 0,0 l/m 0,0 km/h (0 Bft) N 0 0 min 0 W/m 0,4 C 1,3 C 0,0 km/h (0 Bft)
18.01.2020 23:00 1,4 C 94 % 1028,2 hPa 0,0 l/m 0,0 km/h (0 Bft) NW 317 0 min 0 W/m 0,5 C 1,4 C 0,0 km/h (0 Bft)
18.01.2020 22:55 1,4 C 94 % 1028,2 hPa 0,0 l/m 0,0 km/h (0 Bft) NW 317 0 min 0 W/m 0,5 C 1,4 C 0,0 km/h (0 Bft)
18.01.2020 22:50 1,4 C 94 % 1028,1 hPa 0,0 l/m 0,0 km/h (0 Bft) NW 317 0 min 0 W/m 0,5 C 1,4 C 0,0 km/h (0 Bft)
18.01.2020 22:45 1,5 C 94 % 1028,1 hPa 0,0 l/m 0,0 km/h (0 Bft) NW 317 0 min 0 W/m 0,6 C 1,5 C 0,0 km/h (0 Bft)
18.01.2020 22:40 1,6 C 94 % 1028,1 hPa 0,0 l/m 0,0 km/h (0 Bft) NW 317 0 min 0 W/m 0,7 C 1,6 C 0,0 km/h (0 Bft)
18.01.2020 22:35 1,7 C 94 % 1028,1 hPa 0,0 l/m 0,0 km/h (0 Bft) NW 317 0 min 0 W/m 0,8 C 1,7 C 0,0 km/h (0 Bft)
18.01.2020 22:30 1,8 C 94 % 1028,1 hPa 0,0 l/m 0,0 km/h (0 Bft) NW 317 0 min 0 W/m 0,9 C 1,8 C 0,0 km/h (0 Bft)
18.01.2020 22:25 1,9 C 94 % 1028,0 hPa 0,0 l/m 0,0 km/h (0 Bft) NW 317 0 min 0 W/m 1,0 C 1,9 C 0,0 km/h (0 Bft)
18.01.2020 22:20 2,0 C 94 % 1028,0 hPa 0,0 l/m 0,0 km/h (0 Bft) NW 317 0 min 0 W/m 1,1 C 2,0 C 0,0 km/h (0 Bft)
18.01.2020 22:15 2,0 C 94 % 1028,0 hPa 0,0 l/m 0,0 km/h (0 Bft) NW 317 0 min 0 W/m 1,1 C 2,0 C 0,0 km/h (0 Bft)
18.01.2020 22:10 2,0 C 94 % 1028,0 hPa 0,0 l/m 0,0 km/h (0 Bft) NW 317 0 min 0 W/m 1,1 C 2,0 C 0,0 km/h (0 Bft)
18.01.2020 22:05 2,0 C 94 % 1027,9 hPa 0,0 l/m 0,0 km/h (0 Bft) NW 317 0 min 0 W/m 1,1 C 2,0 C 0,0 km/h (0 Bft)
18.01.2020 22:00 2,0 C 94 % 1027,9 hPa 0,0 l/m 0,0 km/h (0 Bft) NW 317 0 min 0 W/m 1,1 C 2,0 C 0,0 km/h (0 Bft)
18.01.2020 21:55 2,0 C 94 % 1028,0 hPa 0,0 l/m 0,0 km/h (0 Bft) NW 317 0 min 0 W/m 1,1 C 2,0 C 0,0 km/h (0 Bft)
18.01.2020 21:50 2,0 C 94 % 1028,0 hPa 0,0 l/m 0,0 km/h (0 Bft) NW 317 0 min 0 W/m 1,1 C 2,0 C 0,0 km/h (0 Bft)
18.01.2020 21:45 1,9 C 94 % 1028,1 hPa 0,0 l/m 0,0 km/h (0 Bft) NW 317 0 min 0 W/m 1,0 C 1,9 C 0,0 km/h (0 Bft)
18.01.2020 21:40 1,9 C 94 % 1028,0 hPa 0,0 l/m 0,0 km/h (0 Bft) NW 317 0 min 0 W/m 1,0 C 1,9 C 0,0 km/h (0 Bft)
18.01.2020 21:35 1,9 C 94 % 1028,0 hPa 0,0 l/m 0,0 km/h (0 Bft) NW 317 0 min 0 W/m 1,0 C 1,9 C 0,0 km/h (0 Bft)
18.01.2020 21:30 1,8 C 94 % 1028,0 hPa 0,2 l/m 0,0 km/h (0 Bft) NW 317 0 min 0 W/m 0,9 C 1,8 C 0,0 km/h (0 Bft)
18.01.2020 21:25 1,7 C 94 % 1028,0 hPa 0,0 l/m 0,0 km/h (0 Bft) NW 317 0 min 0 W/m 0,8 C 1,7 C 0,0 km/h (0 Bft)
18.01.2020 21:20 1,6 C 94 % 1028,1 hPa 0,0 l/m 0,0 km/h (0 Bft) NW 317 0 min 0 W/m 0,7 C 1,6 C 0,0 km/h (0 Bft)
18.01.2020 21:15 1,4 C 94 % 1028,2 hPa 0,0 l/m 0,4 km/h (0 Bft) NW 317 0 min 0 W/m 0,5 C 1,4 C 4,8 km/h (1 Bft)
18.01.2020 21:10 1,2 C 94 % 1028,0 hPa 0,2 l/m 0,0 km/h (0 Bft) NW 317 0 min 0 W/m 0,3 C 1,2 C 0,0 km/h (0 Bft)
18.01.2020 21:05 1,2 C 93 % 1027,8 hPa 0,0 l/m 0,0 km/h (0 Bft) NW 317 0 min 0 W/m 0,2 C 1,2 C 0,0 km/h (0 Bft)
18.01.2020 21:00 1,1 C 94 % 1027,8 hPa 0,0 l/m 0,0 km/h (0 Bft) NW 317 0 min 0 W/m 0,2 C 1,1 C 0,0 km/h (0 Bft)
18.01.2020 20:55 0,8 C 93 % 1027,8 hPa 0,0 l/m 0,0 km/h (0 Bft) NW 317 0 min 0 W/m -0,2 C 0,8 C 0,0 km/h (0 Bft)
18.01.2020 20:50 0,7 C 92 % 1027,8 hPa 0,0 l/m 0,0 km/h (0 Bft) NW 317 0 min 0 W/m -0,4 C 0,7 C 0,0 km/h (0 Bft)
18.01.2020 20:45 0,6 C 92 % 1027,6 hPa 0,0 l/m 0,0 km/h (0 Bft) NW 317 0 min 0 W/m -0,5 C 0,6 C 0,0 km/h (0 Bft)
18.01.2020 20:40 0,6 C 91 % 1027,6 hPa 0,0 l/m 0,0 km/h (0 Bft) NW 317 0 min 0 W/m -0,7 C 0,6 C 0,0 km/h (0 Bft)
18.01.2020 20:35 0,7 C 91 % 1027,5 hPa 0,0 l/m 0,0 km/h (0 Bft) NW 317 0 min 0 W/m -0,6 C 0,7 C 0,0 km/h (0 Bft)
18.01.2020 20:30 0,8 C 91 % 1027,5 hPa 0,0 l/m 0,0 km/h (0 Bft) NW 317 0 min 0 W/m -0,5 C 0,8 C 0,0 km/h (0 Bft)
18.01.2020 20:25 0,9 C 91 % 1027,5 hPa 0,0 l/m 0,0 km/h (0 Bft) NW 317 0 min 0 W/m -0,4 C 0,9 C 0,0 km/h (0 Bft)
18.01.2020 20:20 1,0 C 91 % 1027,5 hPa 0,0 l/m 0,0 km/h (0 Bft) NW 317 0 min 0 W/m -0,3 C 1,0 C 0,0 km/h (0 Bft)
18.01.2020 20:15 1,1 C 91 % 1027,6 hPa 0,0 l/m 0,0 km/h (0 Bft) NW 317 0 min 0 W/m -0,2 C 1,1 C 0,0 km/h (0 Bft)
18.01.2020 20:10 1,2 C 90 % 1027,5 hPa 0,0 l/m 0,0 km/h (0 Bft) NW 317 0 min 0 W/m -0,3 C 1,2 C 0,0 km/h (0 Bft)
18.01.2020 20:05 1,2 C 89 % 1027,4 hPa 0,0 l/m 0,0 km/h (0 Bft) NW 317 0 min 0 W/m -0,4 C 1,2 C 0,0 km/h (0 Bft)
18.01.2020 20:00 1,3 C 89 % 1027,4 hPa 0,0 l/m 0,0 km/h (0 Bft) NW 317 0 min 0 W/m -0,3 C 1,3 C 0,0 km/h (0 Bft)
18.01.2020 19:55 1,6 C 89 % 1027,4 hPa 0,0 l/m 0,0 km/h (0 Bft) NW 317 0 min 0 W/m -0,0 C 1,6 C 0,0 km/h (0 Bft)
18.01.2020 19:50 1,8 C 89 % 1027,4 hPa 0,0 l/m 0,0 km/h (0 Bft) NW 317 0 min 0 W/m 0,2 C 1,8 C 0,0 km/h (0 Bft)
18.01.2020 19:45 2,0 C 89 % 1027,4 hPa 0,0 l/m 0,0 km/h (0 Bft) NW 317 0 min 0 W/m 0,4 C 2,0 C 0,0 km/h (0 Bft)
18.01.2020 19:40 2,2 C 88 % 1027,4 hPa 0,0 l/m 0,0 km/h (0 Bft) NW 317 0 min 0 W/m 0,4 C 2,2 C 0,0 km/h (0 Bft)
18.01.2020 19:35 2,4 C 87 % 1027,3 hPa 0,0 l/m 0,0 km/h (0 Bft) NW 317 0 min 0 W/m 0,5 C 2,4 C 0,0 km/h (0 Bft)
18.01.2020 19:30 2,7 C 87 % 1027,3 hPa 0,0 l/m 0,0 km/h (0 Bft) NW 317 0 min 0 W/m 0,8 C 2,7 C 0,0 km/h (0 Bft)
18.01.2020 19:25 2,9 C 87 % 1027,3 hPa 0,0 l/m 0,0 km/h (0 Bft) NW 317 0 min 0 W/m 1,0 C 2,9 C 0,0 km/h (0 Bft)
18.01.2020 19:20 3,2 C 86 % 1027,3 hPa 0,0 l/m 0,0 km/h (0 Bft) NW 317 0 min 0 W/m 1,1 C 3,2 C 0,0 km/h (0 Bft)
18.01.2020 19:15 3,4 C 86 % 1027,2 hPa 0,0 l/m 0,0 km/h (0 Bft) NW 317 0 min 0 W/m 1,3 C 3,4 C 0,0 km/h (0 Bft)
18.01.2020 19:10 3,7 C 86 % 1027,1 hPa 0,0 l/m 0,0 km/h (0 Bft) NW 317 0 min 0 W/m 1,6 C 3,7 C 0,0 km/h (0 Bft)
18.01.2020 19:05 3,8 C 85 % 1027,1 hPa 0,0 l/m 0,0 km/h (0 Bft) NW 317 0 min 0 W/m 1,5 C 3,8 C 0,0 km/h (0 Bft)
18.01.2020 19:00 4,1 C 85 % 1026,9 hPa 0,0 l/m 0,0 km/h (0 Bft) NW 317 0 min 0 W/m 1,8 C 4,1 C 0,0 km/h (0 Bft)
18.01.2020 18:55 4,2 C 85 % 1026,9 hPa 0,0 l/m 0,0 km/h (0 Bft) NW 317 0 min 0 W/m 1,9 C 4,2 C 0,0 km/h (0 Bft)
18.01.2020 18:50 4,2 C 84 % 1026,9 hPa 0,0 l/m 0,0 km/h (0 Bft) NW 317 0 min 0 W/m 1,7 C 4,2 C 0,0 km/h (0 Bft)
18.01.2020 18:45 4,3 C 84 % 1026,9 hPa 0,0 l/m 0,0 km/h (0 Bft) NW 317 0 min 0 W/m 1,8 C 4,3 C 0,0 km/h (0 Bft)
18.01.2020 18:40 4,2 C 84 % 1026,9 hPa 0,0 l/m 1,2 km/h (1 Bft) NW 317 0 min 0 W/m 1,7 C 4,2 C 6,4 km/h (2 Bft)
18.01.2020 18:35 4,2 C 84 % 1026,8 hPa 0,0 l/m 2,1 km/h (1 Bft) NW 319 0 min 0 W/m 1,7 C 4,2 C 8,0 km/h (2 Bft)
18.01.2020 18:30 4,1 C 85 % 1026,7 hPa 0,0 l/m 5,1 km/h (1 Bft) N-NW 333 0 min 0 W/m 1,8 C 4,1 C 14,5 km/h (3 Bft)
18.01.2020 18:25 4,2 C 87 % 1026,9 hPa 0,0 l/m 1,9 km/h (1 Bft) N-NW 331 0 min 0 W/m 2,2 C 4,2 C 9,7 km/h (2 Bft)
18.01.2020 18:20 4,3 C 88 % 1026,8 hPa 0,0 l/m 0,0 km/h (0 Bft) W-NW 299 0 min 0 W/m 2,5 C 4,3 C 0,0 km/h (0 Bft)
18.01.2020 18:15 4,4 C 88 % 1026,7 hPa 0,0 l/m 0,0 km/h (0 Bft) W-NW 299 0 min 0 W/m 2,6 C 4,4 C 0,0 km/h (0 Bft)
18.01.2020 18:10 4,4 C 87 % 1026,6 hPa 0,0 l/m 0,0 km/h (0 Bft) W-NW 299 0 min 0 W/m 2,4 C 4,4 C 0,0 km/h (0 Bft)
18.01.2020 18:05 4,6 C 87 % 1026,6 hPa 0,0 l/m 0,0 km/h (0 Bft) W-NW 299 0 min 0 W/m 2,6 C 4,6 C 0,0 km/h (0 Bft)
18.01.2020 18:00 4,6 C 87 % 1026,5 hPa 0,0 l/m 0,0 km/h (0 Bft) W-NW 299 0 min 0 W/m 2,6 C 4,6 C 0,0 km/h (0 Bft)
_ Min-Zeit 06:35 15:40 18:00 - 18:00 - - - - 06:35 06:35 18:00
Minimum _ -0,8 C 80 % 1026,5 hPa - 0,0 km/h (0 Bft) - - - - -1,5 C -0,8 C 0,0 km/h (0 Bft)
_ Max-Zeit 15:35 10:15 17:45 21:10 18:30 - - 10:15 12:15 13:05 15:35 18:30
Maximum _ 6,1 C 97 % 1040,2 hPa 0,2 l/m 5,1 km/h
N-NW (1 Bft)
- - 5 min 292 W/m 3,4 C 6,1 C 14,5 km/h
N-NW (3 Bft)
Durchschnitt _ 2,4 C 92 % 1032,0 hPa #0,4 l/m 0,2 km/h (0 Bft) NW - #1:30 h 85 W/m 1,1 C 2,4 C 0,9 km/h (0 Bft)